User: anonymous   Login
Location: Ciula Mare
(45.6000°N, 22.8167°E)
Time: 16:54:27
(UTC+00:00)
Language:

Cosmos 1825 - Orbit

View from above orbital plane
View from above orbital plane
View from above satellite
View from above satellite

Ground track
Ground track

The orbit data is extracted from the following two-line orbital elements,

1 17566U 87024A   23152.09259754  .00010235  00000-0  36489-3 0  9994
2 17566  82.5008 286.8375 0003711 163.2813 196.8549 15.28764918984391
Epoch (UTC): 01 June 2023 02:13:20
Eccentricity: 0.0003711
inclination: 82.5008°
perigee height: 477 km
apogee height: 482 km
right ascension of ascending node: 286.8375°
argument of perigee: 163.2813°
revolutions per day: 15.28764918
mean anomaly at epoch: 196.8549°
orbit number at epoch: 98439

The dashed part of the orbit path shows where the satellite is in the earth's shadow,  

DLR